Sacramento / Mc Clellan, CA

7:29 PM PDT on October 19, 2017 (GMT -0700)
McClellan

Weather History for KMCC - October, 2013

Change the Weather History Date:

Monday, October 21, 2013

  Actual Average (KMHR) Record (KMHR)
Temperature  
Mean Temperature 65 °F -  
Max Temperature 82 °F 70 °F 89 °F (2003)
Min Temperature 48 °F 45 °F 39 °F (2004)
Growing Degree Days 15 (Base 50)    
Moisture  
Dew Point 39 °F    
Average Humidity 42    
Maximum Humidity 66    
Minimum Humidity 20    
Precipitation  
Precipitation 0.00 in - - ()
Sea Level Pressure  
Sea Level Pressure 29.95 in    
Wind  
Wind Speed 3 mph (SSE)    
Max Wind Speed 6 mph    
Max Gust Speed -    
Visibility 10 miles    
Events      
Averages and records for this station are not official NWS values.
T = Trace of Precipitation, MM = Missing Value Source: NWS Daily Summary

Daily Weather History Graph

Daily Weather History Graph

Search for Another Location

Airport or City:

Trip Planner

Search our weather history database for the weather conditions in past years. The results will help you decide how hot, cold, wet, or windy it might be!

Date:

Astronomy

Oct. 21, 2013 Rise Set
Actual Time 7:21 AM PDT 6:18 PM PDT
Civil Twilight 6:54 AM PDT 6:45 PM PDT
Nautical Twilight 6:23 AM PDT 7:16 PM PDT
Astronomical Twilight 5:52 AM PDT 7:47 PM PDT
Moon 8:17 PM PDT (10/21) 9:59 AM PDT (10/21)
Length of Visible Light 11h 51m
Length of Day
10h 57m
Waning Gibbous, 92% of the Moon is Illuminated
Oct 21
Waning Gibbous
Oct 26
Last Quarter
Nov 3
New
Nov 9
First Quarter
Nov 17
Full

Hourly Weather History & Observations

Time (PDT) Temp. Dew Point Humidity Pressure Visibility Wind Dir Wind Speed Gust Speed Precip Events Conditions
12:10 AM 62.6 °F 41.0 °F 45% 29.92 in 10.0 mi ESE 4.6 mph - N/A   Clear
12:30 AM 59.0 °F 41.0 °F 51% 29.92 in 10.0 mi ESE 4.6 mph - N/A   Clear
12:50 AM 59.0 °F 39.2 °F 48% 29.92 in 10.0 mi East 5.8 mph - N/A   Clear
1:10 AM 57.2 °F 41.0 °F 55% 29.92 in 10.0 mi SE 3.5 mph - N/A   Clear
1:30 AM 57.2 °F 41.0 °F 55% 29.93 in 10.0 mi SSE 4.6 mph - N/A   Clear
1:50 AM 57.2 °F 41.0 °F 55% 29.93 in 10.0 mi SE 4.6 mph - N/A   Clear
2:10 AM 55.4 °F 41.0 °F 58% 29.94 in 10.0 mi SSE 5.8 mph - N/A   Clear
2:30 AM 55.4 °F 39.2 °F 54% 29.94 in 10.0 mi SSE 5.8 mph - N/A   Clear
2:50 AM 53.6 °F 39.2 °F 58% 29.94 in 10.0 mi SSE 5.8 mph - N/A   Clear
3:10 AM 55.4 °F 37.4 °F 51% 29.94 in 10.0 mi SSE 4.6 mph - N/A   Clear
3:30 AM 55.4 °F 37.4 °F 51% 29.94 in 10.0 mi SE 4.6 mph - N/A   Clear
3:50 AM 55.4 °F 37.4 °F 51% 29.94 in 10.0 mi SE 4.6 mph - N/A   Clear
4:10 AM 53.6 °F 35.6 °F 51% 29.94 in 10.0 mi East 4.6 mph - N/A   Clear
4:30 AM 51.8 °F 37.4 °F 58% 29.95 in 10.0 mi NE 3.5 mph - N/A   Clear
4:50 AM 50.0 °F 37.4 °F 62% 29.95 in 10.0 mi Calm Calm - N/A   Clear
5:10 AM 50.0 °F 37.4 °F 62% 29.95 in 10.0 mi Calm Calm - N/A   Clear
5:30 AM 50.0 °F 37.4 °F 62% 29.96 in 10.0 mi Calm Calm - N/A   Clear
5:50 AM 50.0 °F 37.4 °F 62% 29.96 in 10.0 mi ENE 3.5 mph - N/A   Clear
6:10 AM 51.8 °F 37.4 °F 58% 29.96 in 10.0 mi ESE 4.6 mph - N/A   Clear
6:30 AM 51.8 °F 37.4 °F 58% 29.97 in 10.0 mi Calm Calm - N/A   Clear
6:50 AM 50.0 °F 39.2 °F 66% 29.97 in 10.0 mi Calm Calm - N/A   Clear
7:10 AM 48.2 °F 37.4 °F 66% 29.97 in 10.0 mi Calm Calm - N/A   Clear
7:30 AM 48.2 °F 37.4 °F 66% 29.98 in 9.0 mi North 3.5 mph - N/A   Clear
7:50 AM 50.0 °F 39.2 °F 66% 29.98 in 10.0 mi North 3.5 mph - N/A   Clear
8:10 AM 50.0 °F 39.2 °F 66% 29.99 in 8.0 mi Calm Calm - N/A   Clear
8:30 AM - - N/A% 29.99 in 9.0 mi Calm Calm - N/A   Unknown
8:50 AM 57.2 °F 41.0 °F 55% 30.00 in 10.0 mi Calm Calm - N/A   Clear
9:10 AM 59.0 °F 41.0 °F 51% 30.00 in 9.0 mi Calm Calm - N/A   Clear
9:30 AM 62.6 °F 41.0 °F 45% 30.00 in 9.0 mi Calm Calm - N/A   Clear
9:50 AM 64.4 °F 42.8 °F 45% 30.01 in 9.0 mi SSW 3.5 mph - N/A   Clear
10:10 AM 64.4 °F 42.8 °F 45% 30.00 in 10.0 mi Calm Calm - N/A   Clear
10:30 AM 66.2 °F 41.0 °F 40% 30.00 in 9.0 mi SSW 3.5 mph - N/A   Clear
10:50 AM 68.0 °F 41.0 °F 37% 30.00 in 10.0 mi Calm Calm - N/A   Clear
11:10 AM 68.0 °F 41.0 °F 37% 30.00 in 10.0 mi Calm Calm - N/A   Clear
11:30 AM 69.8 °F 41.0 °F 35% 29.99 in 10.0 mi Calm Calm - N/A   Clear
11:50 AM 71.6 °F 41.0 °F 33% 29.99 in 10.0 mi Calm Calm - N/A   Clear
12:10 PM 73.4 °F 41.0 °F 31% 29.99 in 10.0 mi SW 4.6 mph - N/A   Clear
12:30 PM 73.4 °F 39.2 °F 29% 29.98 in 10.0 mi South 3.5 mph - N/A   Clear
12:50 PM 73.4 °F 39.2 °F 29% 29.97 in 10.0 mi SW 3.5 mph - N/A   Clear
1:10 PM 75.2 °F 39.2 °F 27% 29.96 in 10.0 mi WSW 4.6 mph - N/A   Clear
1:30 PM 77.0 °F 41.0 °F 28% 29.95 in 10.0 mi SSW 5.8 mph - N/A   Clear
1:50 PM 77.0 °F 39.2 °F 26% 29.94 in 9.0 mi SW 5.8 mph - N/A   Clear
2:10 PM 77.0 °F 39.2 °F 26% 29.93 in 9.0 mi Calm Calm - N/A   Clear
2:30 PM 78.8 °F 39.2 °F 24% 29.93 in 9.0 mi West 3.5 mph - N/A   Clear
2:50 PM 80.6 °F 37.4 °F 21% 29.92 in 10.0 mi West 4.6 mph - N/A   Clear
3:10 PM 80.6 °F 37.4 °F 21% 29.92 in 10.0 mi South 4.6 mph - N/A   Clear
3:30 PM 80.6 °F 37.4 °F 21% 29.92 in 10.0 mi SW 3.5 mph - N/A   Clear
3:50 PM 82.4 °F 37.4 °F 20% 29.91 in 9.0 mi Calm Calm - N/A   Clear
4:10 PM 80.6 °F 37.4 °F 21% 29.91 in 10.0 mi Calm Calm - N/A   Clear
4:30 PM 80.6 °F 35.6 °F 20% 29.90 in 10.0 mi Calm Calm - N/A   Clear
4:50 PM 80.6 °F 35.6 °F 20% 29.90 in 10.0 mi Calm Calm - N/A   Clear
5:10 PM 80.6 °F 37.4 °F 21% 29.90 in 10.0 mi Calm Calm - N/A   Clear
5:30 PM 80.6 °F 37.4 °F 21% 29.90 in 10.0 mi Calm Calm - N/A   Clear
5:50 PM 80.6 °F 37.4 °F 21% 29.90 in 10.0 mi Calm Calm - N/A   Clear
6:10 PM 77.0 °F 35.6 °F 22% 29.90 in 10.0 mi Calm Calm - N/A   Clear
6:30 PM 75.2 °F 37.4 °F 25% 29.90 in 10.0 mi Calm Calm - N/A   Clear
6:50 PM 75.2 °F 39.2 °F 27% 29.91 in 10.0 mi Calm Calm - N/A   Clear
7:10 PM 73.4 °F 39.2 °F 29% 29.91 in 10.0 mi SW 3.5 mph - N/A   Clear
7:30 PM 71.6 °F 39.2 °F 31% 29.92 in 10.0 mi SW 3.5 mph - N/A   Clear
7:50 PM 68.0 °F 37.4 °F 33% 29.92 in 10.0 mi Calm Calm - N/A   Clear
8:10 PM 68.0 °F 37.4 °F 33% 29.92 in 10.0 mi Calm Calm - N/A   Clear
8:30 PM 68.0 °F 39.2 °F 35% 29.93 in 10.0 mi Calm Calm - N/A   Clear
8:50 PM 64.4 °F 39.2 °F 40% 29.93 in 10.0 mi Calm Calm - N/A   Clear
9:10 PM 62.6 °F 39.2 °F 42% 29.94 in 10.0 mi North 3.5 mph - N/A   Clear
9:30 PM 62.6 °F 42.8 °F 48% 29.95 in 9.0 mi Calm Calm - N/A   Clear
9:50 PM 62.6 °F 41.0 °F 45% 29.95 in 10.0 mi Calm Calm - N/A   Clear
10:10 PM 64.4 °F 42.8 °F 45% 29.96 in 10.0 mi Calm Calm - N/A   Clear
10:30 PM 62.6 °F 42.8 °F 48% 29.96 in 10.0 mi Calm Calm - N/A   Clear
10:50 PM 62.6 °F 44.6 °F 52% 29.96 in 10.0 mi ESE 3.5 mph - N/A   Clear
11:10 PM 62.6 °F 44.6 °F 52% 29.96 in 10.0 mi East 4.6 mph - N/A   Clear
11:30 PM 60.8 °F 46.4 °F 59% 29.97 in 10.0 mi SE 4.6 mph - N/A   Clear
11:50 PM 59.0 °F 44.6 °F 59% 29.97 in 10.0 mi Calm Calm - N/A   Clear